Flag for Marshall Islands Weather past 2 weeks in Majuro, Marshall Islands

Now
78 °F

Rain. Mostly cloudy.


Feels Like: 79 °F
Forecast: 80 / 86 °F
Wind: 5 mph from Southwest

Location: Majuro Atoll

Current Time: Jul 29, 2014 at 8:05:45 AM

Latest Report: Jul 29, 2014 at 6:54 AM


Visibility: 12 mi

Pressure: 29.85 "Hg

Humidity: 94%

Dew point: 76 °F

Location of MajuroLocation

Historic Weather in Majuro — Graph

°F

Majuro temperature yesterday

Maximum temperature yesterday: 85 °F (at 11:52 AM)
Minimum temperature yesterday: 78 °F (at 10:51 PM)
Average temperature yesterday: 82 °F

Past Weeks' High & Low Weather Summary

 TemperatureHumidityPressure
High88 °F (Jul 17, 2:53 PM)96% (Jul 29, 5:52 AM)29.91 "Hg (Jul 29, 5:52 AM)
Low77 °F (Jul 15, 7:56 AM)68% (Jul 23, 12:51 PM)29.71 "Hg (Jul 17, 3:50 PM)
Average82 °F83%29.80 "Hg
* Reported Jul 14 6:52 AM — Jul 29 6:54 AM, Majuro, Weather by CustomWeather, © 2014

Note: Actual official high and low records may vary slightly from our data, if they occured in-between our weather recording intervals... More about our weather records

Advertising

Majuro weather history for previous 24 hours

 ConditionsComfort  
Time TempWeatherWind HumidityBarometerVisibility
6:54 AM
Jul 29
78 °FRain. Mostly cloudy.5 mph94%29.85 "Hg12 mi
5:52 AM77 °FSprinkles. Overcast.8 mph96%29.85 "Hg6 mi
4:53 AM78 °FLots of rain. Mostly cloudy.10 mph94%29.84 "Hg1 mi
3:54 AM80 °FLight rain. Overcast.9 mph90%29.82 "Hg14 mi
2:56 AM80 °FOvercast.3 mph90%29.82 "Hg15 mi
1:56 AM80 °FLight rain. Overcast.No wind91%29.83 "Hg14 mi
12:57 AM79 °FOvercast.3 mph94%29.85 "Hg15 mi
11:52 PM
Jul 28
79 °FLight rain. Overcast.5 mph93%29.85 "Hg14 mi
10:51 PM78 °FLight rain. Overcast.5 mph92%29.88 "Hg14 mi
9:52 PM80 °FLight rain. Overcast.3 mph91%29.87 "Hg14 mi
9:00 PM81 °FThunderstorms. Overcast.13 mph89%29.85 "Hg8 mi
7:51 PM82 °FSprinkles. Cloudy.13 mph87%29.83 "Hg14 mi
6:51 PM82 °FCloudy.16 mph86%29.82 "Hg15 mi
5:52 PM84 °FCloudy.6 mph78%29.78 "Hg15 mi
4:51 PM84 °FMore clouds than sun.9 mph82%29.78 "Hg15 mi
3:52 PM85 °FCloudy.10 mph80%29.77 "Hg15 mi
2:50 PM85 °FMore clouds than sun.10 mph81%29.78 "Hg15 mi
1:50 PM82 °FSprinkles. Cloudy.8 mph89%29.80 "Hg10 mi
12:54 PM82 °FSprinkles. Cloudy.15 mph88%29.83 "Hg8 mi
11:52 AM85 °FMore clouds than sun.7 mph78%29.85 "Hg15 mi
10:52 AM84 °FMore clouds than sun.6 mph80%29.85 "Hg15 mi
9:54 AM83 °FBroken clouds.7 mph82%29.86 "Hg15 mi
8:54 AM84 °FCloudy.7 mph82%29.85 "Hg15 mi
Weather by CustomWeather, © 2014

See weather overviewHow to use our weather pages